{"data":{"norad_id":58703,"epoch":"2026-09-19T22:18:40.884768Z","epoch_age_seconds":63735,"freshness":"FRESH","line1":"1 58703U 24004D   26262.92963987  .00003493  00000+0  13270-3 0  9998","line2":"2 58703  97.4666  89.1333 0005301  20.8394 339.3061 15.27483008150239","mean_motion":15.27483008,"eccentricity":0.0005301,"inclination_deg":97.4666,"raan_deg":89.1333,"arg_perigee_deg":20.8394,"mean_anomaly_deg":339.3061,"bstar":0.0001327,"rev_number":15023,"period_min":94.2727344565,"perigee_km":479.70227163423,"apogee_km":486.9768090623,"semimajor_km":6861.4765403483,"source":"CELESTRAK","updated_at":"2026-09-20T09:00:33.256587Z"}}